owner,sensor,date,latitude,longitude,vertical_datum,sea_water_temperature,qcFlag 
ENP,ioos.station.NOAA.NDBC:WRBF1:1,2019-05-01T00:00:00Z,25.0720,-80.7350,1.0,29.22,11111222 
ENP,ioos.station.NOAA.NDBC:WRBF1:1,2019-05-01T01:00:00Z,25.0720,-80.7350,1.0,28.03,11111222 
ENP,ioos.station.NOAA.NDBC:WRBF1:1,2019-05-01T02:00:00Z,25.0720,-80.7350,1.0,27.44,11111222 
ENP,ioos.station.NOAA.NDBC:WRBF1:1,2019-05-01T03:00:00Z,25.0720,-80.7350,1.0,27.3,11111222 
ENP,ioos.station.NOAA.NDBC:WRBF1:1,2019-05-01T04:00:00Z,25.0720,-80.7350,1.0,26.82,11111222 
ENP,ioos.station.NOAA.NDBC:WRBF1:1,2019-05-01T05:00:00Z,25.0720,-80.7350,1.0,26.28,11111222 
ENP,ioos.station.NOAA.NDBC:WRBF1:1,2019-05-01T09:00:00Z,25.0720,-80.7350,1.0,24.04,11111222 
ENP,ioos.station.NOAA.NDBC:WRBF1:1,2019-05-01T10:00:00Z,25.0720,-80.7350,1.0,23.09,11111222 
ENP,ioos.station.NOAA.NDBC:WRBF1:1,2019-05-01T11:00:00Z,25.0720,-80.7350,1.0,22.53,11111222 
ENP,ioos.station.NOAA.NDBC:WRBF1:1,2019-05-01T12:00:00Z,25.0720,-80.7350,1.0,22.46,11111222 
ENP,ioos.station.NOAA.NDBC:WRBF1:1,2019-05-01T13:00:00Z,25.0720,-80.7350,1.0,22.76,11111222 
ENP,ioos.station.NOAA.NDBC:WRBF1:1,2019-05-01T14:00:00Z,25.0720,-80.7350,1.0,23.14,11111222 
ENP,ioos.station.NOAA.NDBC:WRBF1:1,2019-05-01T15:00:00Z,25.0720,-80.7350,1.0,23.73,11111222 
ENP,ioos.station.NOAA.NDBC:WRBF1:1,2019-05-01T16:00:00Z,25.0720,-80.7350,1.0,25.06,11111222 
ENP,ioos.station.NOAA.NDBC:WRBF1:1,2019-05-01T17:00:00Z,25.0720,-80.7350,1.0,26.66,11111222 
ENP,ioos.station.NOAA.NDBC:WRBF1:1,2019-05-01T18:00:00Z,25.0720,-80.7350,1.0,27.95,11111222 
ENP,ioos.station.NOAA.NDBC:WRBF1:1,2019-05-01T19:00:00Z,25.0720,-80.7350,1.0,29.13,11111222 
ENP,ioos.station.NOAA.NDBC:WRBF1:1,2019-05-01T20:00:00Z,25.0720,-80.7350,1.0,29.87,11111222 
ENP,ioos.station.NOAA.NDBC:WRBF1:1,2019-05-01T21:00:00Z,25.0720,-80.7350,1.0,29.09,11111222 
ENP,ioos.station.NOAA.NDBC:WRBF1:1,2019-05-01T22:00:00Z,25.0720,-80.7350,1.0,29.87,11111222 
ENP,ioos.station.NOAA.NDBC:WRBF1:1,2019-05-01T23:00:00Z,25.0720,-80.7350,1.0,29.74,11111222 
ENP,ioos.station.NOAA.NDBC:WRBF1:1,2019-05-02T00:00:00Z,25.0720,-80.7350,1.0,29.41,11111222 
ENP,ioos.station.NOAA.NDBC:WRBF1:1,2019-05-02T01:00:00Z,25.0720,-80.7350,1.0,28.82,11111222 
ENP,ioos.station.NOAA.NDBC:WRBF1:1,2019-05-02T02:00:00Z,25.0720,-80.7350,1.0,28.4,11111222 
ENP,ioos.station.NOAA.NDBC:WRBF1:1,2019-05-02T03:00:00Z,25.0720,-80.7350,1.0,27.9,11111222 
ENP,ioos.station.NOAA.NDBC:WRBF1:1,2019-05-02T04:00:00Z,25.0720,-80.7350,1.0,27.41,11111222 
ENP,ioos.station.NOAA.NDBC:WRBF1:1,2019-05-02T05:00:00Z,25.0720,-80.7350,1.0,27.07,11111222 
ENP,ioos.station.NOAA.NDBC:WRBF1:1,2019-05-02T07:00:00Z,25.0720,-80.7350,1.0,26.57,11111222 
ENP,ioos.station.NOAA.NDBC:WRBF1:1,2019-05-02T08:00:00Z,25.0720,-80.7350,1.0,26.3,11111222 
ENP,ioos.station.NOAA.NDBC:WRBF1:1,2019-05-02T09:00:00Z,25.0720,-80.7350,1.0,26.29,11111222 
ENP,ioos.station.NOAA.NDBC:WRBF1:1,2019-05-02T10:00:00Z,25.0720,-80.7350,1.0,26.35,11111222 
ENP,ioos.station.NOAA.NDBC:WRBF1:1,2019-05-02T11:00:00Z,25.0720,-80.7350,1.0,26.18,11111222 
ENP,ioos.station.NOAA.NDBC:WRBF1:1,2019-05-02T12:00:00Z,25.0720,-80.7350,1.0,26.08,11111222 
ENP,ioos.station.NOAA.NDBC:WRBF1:1,2019-05-02T13:00:00Z,25.0720,-80.7350,1.0,26.09,11111222 
ENP,ioos.station.NOAA.NDBC:WRBF1:1,2019-05-02T14:00:00Z,25.0720,-80.7350,1.0,26.18,11111222 
ENP,ioos.station.NOAA.NDBC:WRBF1:1,2019-05-02T15:00:00Z,25.0720,-80.7350,1.0,26.45,11111222 
ENP,ioos.station.NOAA.NDBC:WRBF1:1,2019-05-02T16:00:00Z,25.0720,-80.7350,1.0,26.93,11111222 
ENP,ioos.station.NOAA.NDBC:WRBF1:1,2019-05-02T17:00:00Z,25.0720,-80.7350,1.0,27.61,11111222 
ENP,ioos.station.NOAA.NDBC:WRBF1:1,2019-05-02T18:00:00Z,25.0720,-80.7350,1.0,28.41,11111222 
ENP,ioos.station.NOAA.NDBC:WRBF1:1,2019-05-02T19:00:00Z,25.0720,-80.7350,1.0,29.1,11111222 
ENP,ioos.station.NOAA.NDBC:WRBF1:1,2019-05-02T20:00:00Z,25.0720,-80.7350,1.0,29.48,11111222 
ENP,ioos.station.NOAA.NDBC:WRBF1:1,2019-05-02T21:00:00Z,25.0720,-80.7350,1.0,29.73,11111222 
ENP,ioos.station.NOAA.NDBC:WRBF1:1,2019-05-02T22:00:00Z,25.0720,-80.7350,1.0,29.93,11111222 
ENP,ioos.station.NOAA.NDBC:WRBF1:1,2019-05-02T23:00:00Z,25.0720,-80.7350,1.0,30.14,11111222 
ENP,ioos.station.NOAA.NDBC:WRBF1:1,2019-05-03T00:00:00Z,25.0720,-80.7350,1.0,30.27,11111222 
ENP,ioos.station.NOAA.NDBC:WRBF1:1,2019-05-03T01:00:00Z,25.0720,-80.7350,1.0,30.22,11111222 
ENP,ioos.station.NOAA.NDBC:WRBF1:1,2019-05-03T02:00:00Z,25.0720,-80.7350,1.0,29.89,11111222 
ENP,ioos.station.NOAA.NDBC:WRBF1:1,2019-05-03T03:00:00Z,25.0720,-80.7350,1.0,29.6,11111222 
ENP,ioos.station.NOAA.NDBC:WRBF1:1,2019-05-03T04:00:00Z,25.0720,-80.7350,1.0,29.24,11111222 
ENP,ioos.station.NOAA.NDBC:WRBF1:1,2019-05-03T05:00:00Z,25.0720,-80.7350,1.0,28.93,11111222 
ENP,ioos.station.NOAA.NDBC:WRBF1:1,2019-05-03T10:00:00Z,25.0720,-80.7350,1.0,27.9,11111222 
ENP,ioos.station.NOAA.NDBC:WRBF1:1,2019-05-03T11:00:00Z,25.0720,-80.7350,1.0,27.77,11111222 
ENP,ioos.station.NOAA.NDBC:WRBF1:1,2019-05-03T12:00:00Z,25.0720,-80.7350,1.0,27.47,11111222 
ENP,ioos.station.NOAA.NDBC:WRBF1:1,2019-05-03T13:00:00Z,25.0720,-80.7350,1.0,27.39,11111222 
ENP,ioos.station.NOAA.NDBC:WRBF1:1,2019-05-03T14:00:00Z,25.0720,-80.7350,1.0,27.8,11111222 
ENP,ioos.station.NOAA.NDBC:WRBF1:1,2019-05-03T15:00:00Z,25.0720,-80.7350,1.0,28.2,11111222 
ENP,ioos.station.NOAA.NDBC:WRBF1:1,2019-05-03T16:00:00Z,25.0720,-80.7350,1.0,28.62,11111222 
ENP,ioos.station.NOAA.NDBC:WRBF1:1,2019-05-03T17:00:00Z,25.0720,-80.7350,1.0,29.01,11111222 
ENP,ioos.station.NOAA.NDBC:WRBF1:1,2019-05-03T18:00:00Z,25.0720,-80.7350,1.0,29.47,11111222 
ENP,ioos.station.NOAA.NDBC:WRBF1:1,2019-05-03T19:00:00Z,25.0720,-80.7350,1.0,29.89,11111222 
ENP,ioos.station.NOAA.NDBC:WRBF1:1,2019-05-03T20:00:00Z,25.0720,-80.7350,1.0,30.23,11111222 
ENP,ioos.station.NOAA.NDBC:WRBF1:1,2019-05-03T21:00:00Z,25.0720,-80.7350,1.0,30.57,11111222 
ENP,ioos.station.NOAA.NDBC:WRBF1:1,2019-05-03T22:00:00Z,25.0720,-80.7350,1.0,30.59,11111222 
ENP,ioos.station.NOAA.NDBC:WRBF1:1,2019-05-03T23:00:00Z,25.0720,-80.7350,1.0,30.56,11111222 
ENP,ioos.station.NOAA.NDBC:WRBF1:1,2019-05-04T00:00:00Z,25.0720,-80.7350,1.0,30.51,11111222 
ENP,ioos.station.NOAA.NDBC:WRBF1:1,2019-05-04T01:00:00Z,25.0720,-80.7350,1.0,30.3,11111222 
ENP,ioos.station.NOAA.NDBC:WRBF1:1,2019-05-04T02:00:00Z,25.0720,-80.7350,1.0,30.08,11111222 
ENP,ioos.station.NOAA.NDBC:WRBF1:1,2019-05-04T03:00:00Z,25.0720,-80.7350,1.0,29.8,11111222 
ENP,ioos.station.NOAA.NDBC:WRBF1:1,2019-05-04T04:00:00Z,25.0720,-80.7350,1.0,29.54,11111222 
ENP,ioos.station.NOAA.NDBC:WRBF1:1,2019-05-04T05:00:00Z,25.0720,-80.7350,1.0,29.36,11111222 
ENP,ioos.station.NOAA.NDBC:WRBF1:1,2019-05-04T06:00:00Z,25.0720,-80.7350,1.0,29.36,11111222 
ENP,ioos.station.NOAA.NDBC:WRBF1:1,2019-05-04T07:00:00Z,25.0720,-80.7350,1.0,29.36,11111222 
ENP,ioos.station.NOAA.NDBC:WRBF1:1,2019-05-04T08:00:00Z,25.0720,-80.7350,1.0,29.29,11111222 
ENP,ioos.station.NOAA.NDBC:WRBF1:1,2019-05-04T09:00:00Z,25.0720,-80.7350,1.0,29.08,11111222 
ENP,ioos.station.NOAA.NDBC:WRBF1:1,2019-05-04T10:00:00Z,25.0720,-80.7350,1.0,28.89,11111222 
ENP,ioos.station.NOAA.NDBC:WRBF1:1,2019-05-04T11:00:00Z,25.0720,-80.7350,1.0,28.76,11111222 
ENP,ioos.station.NOAA.NDBC:WRBF1:1,2019-05-04T12:00:00Z,25.0720,-80.7350,1.0,28.6,11111222 
ENP,ioos.station.NOAA.NDBC:WRBF1:1,2019-05-04T13:00:00Z,25.0720,-80.7350,1.0,28.51,11111222 
ENP,ioos.station.NOAA.NDBC:WRBF1:1,2019-05-04T14:00:00Z,25.0720,-80.7350,1.0,28.61,11111222 
ENP,ioos.station.NOAA.NDBC:WRBF1:1,2019-05-04T15:00:00Z,25.0720,-80.7350,1.0,28.77,11111222 
ENP,ioos.station.NOAA.NDBC:WRBF1:1,2019-05-04T16:00:00Z,25.0720,-80.7350,1.0,28.97,11111222 
ENP,ioos.station.NOAA.NDBC:WRBF1:1,2019-05-04T17:00:00Z,25.0720,-80.7350,1.0,29.41,11111222 
ENP,ioos.station.NOAA.NDBC:WRBF1:1,2019-05-04T19:00:00Z,25.0720,-80.7350,1.0,30.4,11111222 
ENP,ioos.station.NOAA.NDBC:WRBF1:1,2019-05-04T20:00:00Z,25.0720,-80.7350,1.0,30.71,11111222 
ENP,ioos.station.NOAA.NDBC:WRBF1:1,2019-05-04T21:00:00Z,25.0720,-80.7350,1.0,31.01,11111222 
ENP,ioos.station.NOAA.NDBC:WRBF1:1,2019-05-04T22:00:00Z,25.0720,-80.7350,1.0,31.18,11111222 
ENP,ioos.station.NOAA.NDBC:WRBF1:1,2019-05-04T23:00:00Z,25.0720,-80.7350,1.0,31.08,11111222 
ENP,ioos.station.NOAA.NDBC:WRBF1:1,2019-05-05T00:00:00Z,25.0720,-80.7350,1.0,30.96,11111222 
ENP,ioos.station.NOAA.NDBC:WRBF1:1,2019-05-05T01:00:00Z,25.0720,-80.7350,1.0,30.73,11111222 
ENP,ioos.station.NOAA.NDBC:WRBF1:1,2019-05-05T02:00:00Z,25.0720,-80.7350,1.0,30.52,11111222 
ENP,ioos.station.NOAA.NDBC:WRBF1:1,2019-05-05T03:00:00Z,25.0720,-80.7350,1.0,30.4,11111222 
ENP,ioos.station.NOAA.NDBC:WRBF1:1,2019-05-05T04:00:00Z,25.0720,-80.7350,1.0,30.35,11111222 
ENP,ioos.station.NOAA.NDBC:WRBF1:1,2019-05-05T05:00:00Z,25.0720,-80.7350,1.0,30.11,11111222 
ENP,ioos.station.NOAA.NDBC:WRBF1:1,2019-05-05T06:00:00Z,25.0720,-80.7350,1.0,29.77,11111222 
ENP,ioos.station.NOAA.NDBC:WRBF1:1,2019-05-05T07:00:00Z,25.0720,-80.7350,1.0,29.58,11111222 
ENP,ioos.station.NOAA.NDBC:WRBF1:1,2019-05-05T08:00:00Z,25.0720,-80.7350,1.0,29.42,11111222 
ENP,ioos.station.NOAA.NDBC:WRBF1:1,2019-05-05T09:00:00Z,25.0720,-80.7350,1.0,29.26,11111222 
ENP,ioos.station.NOAA.NDBC:WRBF1:1,2019-05-05T10:00:00Z,25.0720,-80.7350,1.0,29.2,11111222 
ENP,ioos.station.NOAA.NDBC:WRBF1:1,2019-05-05T11:00:00Z,25.0720,-80.7350,1.0,29.16,11111222 
ENP,ioos.station.NOAA.NDBC:WRBF1:1,2019-05-05T12:00:00Z,25.0720,-80.7350,1.0,29.05,11111222 
ENP,ioos.station.NOAA.NDBC:WRBF1:1,2019-05-05T13:00:00Z,25.0720,-80.7350,1.0,28.94,11111222 
ENP,ioos.station.NOAA.NDBC:WRBF1:1,2019-05-05T14:00:00Z,25.0720,-80.7350,1.0,28.9,11111222 
ENP,ioos.station.NOAA.NDBC:WRBF1:1,2019-05-05T15:00:00Z,25.0720,-80.7350,1.0,29.05,11111222 
ENP,ioos.station.NOAA.NDBC:WRBF1:1,2019-05-05T16:00:00Z,25.0720,-80.7350,1.0,29.41,11111222 
ENP,ioos.station.NOAA.NDBC:WRBF1:1,2019-05-05T17:00:00Z,25.0720,-80.7350,1.0,29.83,11111222 
ENP,ioos.station.NOAA.NDBC:WRBF1:1,2019-05-05T19:00:00Z,25.0720,-80.7350,1.0,30.8,11111222 
ENP,ioos.station.NOAA.NDBC:WRBF1:1,2019-05-05T20:00:00Z,25.0720,-80.7350,1.0,31.2,11111222 
ENP,ioos.station.NOAA.NDBC:WRBF1:1,2019-05-05T21:00:00Z,25.0720,-80.7350,1.0,31.5,11111222 
ENP,ioos.station.NOAA.NDBC:WRBF1:1,2019-05-05T22:00:00Z,25.0720,-80.7350,1.0,31.9,11111222 
ENP,ioos.station.NOAA.NDBC:WRBF1:1,2019-05-05T23:00:00Z,25.0720,-80.7350,1.0,32.35,11111222 
ENP,ioos.station.NOAA.NDBC:WRBF1:1,2019-05-06T00:00:00Z,25.0720,-80.7350,1.0,32.56,11111222 
ENP,ioos.station.NOAA.NDBC:WRBF1:1,2019-05-06T01:00:00Z,25.0720,-80.7350,1.0,32.4,11111222 
ENP,ioos.station.NOAA.NDBC:WRBF1:1,2019-05-06T02:00:00Z,25.0720,-80.7350,1.0,32.08,11111222 
ENP,ioos.station.NOAA.NDBC:WRBF1:1,2019-05-06T03:00:00Z,25.0720,-80.7350,1.0,31.3,11111222 
ENP,ioos.station.NOAA.NDBC:WRBF1:1,2019-05-06T04:00:00Z,25.0720,-80.7350,1.0,31.17,11111222 
ENP,ioos.station.NOAA.NDBC:WRBF1:1,2019-05-06T05:00:00Z,25.0720,-80.7350,1.0,30.94,11111222 
ENP,ioos.station.NOAA.NDBC:WRBF1:1,2019-05-06T06:00:00Z,25.0720,-80.7350,1.0,30.77,11111222 
ENP,ioos.station.NOAA.NDBC:WRBF1:1,2019-05-06T07:00:00Z,25.0720,-80.7350,1.0,30.55,11111222 
ENP,ioos.station.NOAA.NDBC:WRBF1:1,2019-05-06T08:00:00Z,25.0720,-80.7350,1.0,30.29,11111222 
ENP,ioos.station.NOAA.NDBC:WRBF1:1,2019-05-06T09:00:00Z,25.0720,-80.7350,1.0,30.09,11111222 
ENP,ioos.station.NOAA.NDBC:WRBF1:1,2019-05-06T10:00:00Z,25.0720,-80.7350,1.0,29.88,11111222 
ENP,ioos.station.NOAA.NDBC:WRBF1:1,2019-05-06T11:00:00Z,25.0720,-80.7350,1.0,29.64,11111222 
ENP,ioos.station.NOAA.NDBC:WRBF1:1,2019-05-06T12:00:00Z,25.0720,-80.7350,1.0,29.49,11111222 
ENP,ioos.station.NOAA.NDBC:WRBF1:1,2019-05-06T13:00:00Z,25.0720,-80.7350,1.0,29.46,11111222 
ENP,ioos.station.NOAA.NDBC:WRBF1:1,2019-05-06T14:00:00Z,25.0720,-80.7350,1.0,29.54,11111222 
ENP,ioos.station.NOAA.NDBC:WRBF1:1,2019-05-06T15:00:00Z,25.0720,-80.7350,1.0,29.71,11111222 
ENP,ioos.station.NOAA.NDBC:WRBF1:1,2019-05-06T16:00:00Z,25.0720,-80.7350,1.0,30.02,11111222 
ENP,ioos.station.NOAA.NDBC:WRBF1:1,2019-05-06T17:00:00Z,25.0720,-80.7350,1.0,30.45,11111222 
ENP,ioos.station.NOAA.NDBC:WRBF1:1,2019-05-06T18:00:00Z,25.0720,-80.7350,1.0,30.96,11111222 
ENP,ioos.station.NOAA.NDBC:WRBF1:1,2019-05-06T19:00:00Z,25.0720,-80.7350,1.0,31.52,11111222 
ENP,ioos.station.NOAA.NDBC:WRBF1:1,2019-05-06T20:00:00Z,25.0720,-80.7350,1.0,31.93,11111222 
ENP,ioos.station.NOAA.NDBC:WRBF1:1,2019-05-06T21:00:00Z,25.0720,-80.7350,1.0,32.39,11111222 
ENP,ioos.station.NOAA.NDBC:WRBF1:1,2019-05-06T22:00:00Z,25.0720,-80.7350,1.0,32.81,11111222 
ENP,ioos.station.NOAA.NDBC:WRBF1:1,2019-05-06T23:00:00Z,25.0720,-80.7350,1.0,32.34,11111222 
ENP,ioos.station.NOAA.NDBC:WRBF1:1,2019-05-07T00:00:00Z,25.0720,-80.7350,1.0,32.06,11111222 
ENP,ioos.station.NOAA.NDBC:WRBF1:1,2019-05-07T01:00:00Z,25.0720,-80.7350,1.0,31.8,11111222 
ENP,ioos.station.NOAA.NDBC:WRBF1:1,2019-05-07T02:00:00Z,25.0720,-80.7350,1.0,31.56,11111222 
ENP,ioos.station.NOAA.NDBC:WRBF1:1,2019-05-07T03:00:00Z,25.0720,-80.7350,1.0,31.3,11111222 
ENP,ioos.station.NOAA.NDBC:WRBF1:1,2019-05-07T04:00:00Z,25.0720,-80.7350,1.0,31.05,11111222 
ENP,ioos.station.NOAA.NDBC:WRBF1:1,2019-05-07T05:00:00Z,25.0720,-80.7350,1.0,30.7,11111222 
ENP,ioos.station.NOAA.NDBC:WRBF1:1,2019-05-07T06:00:00Z,25.0720,-80.7350,1.0,30.34,11111222 
ENP,ioos.station.NOAA.NDBC:WRBF1:1,2019-05-07T07:00:00Z,25.0720,-80.7350,1.0,30.1,11111222 
ENP,ioos.station.NOAA.NDBC:WRBF1:1,2019-05-07T08:00:00Z,25.0720,-80.7350,1.0,29.95,11111222 
ENP,ioos.station.NOAA.NDBC:WRBF1:1,2019-05-07T09:00:00Z,25.0720,-80.7350,1.0,29.78,11111222 
ENP,ioos.station.NOAA.NDBC:WRBF1:1,2019-05-07T10:00:00Z,25.0720,-80.7350,1.0,29.7,11111222 
ENP,ioos.station.NOAA.NDBC:WRBF1:1,2019-05-07T11:00:00Z,25.0720,-80.7350,1.0,29.61,11111222 
ENP,ioos.station.NOAA.NDBC:WRBF1:1,2019-05-07T12:00:00Z,25.0720,-80.7350,1.0,29.54,11111222 
ENP,ioos.station.NOAA.NDBC:WRBF1:1,2019-05-07T13:00:00Z,25.0720,-80.7350,1.0,29.52,11111222 
ENP,ioos.station.NOAA.NDBC:WRBF1:1,2019-05-07T14:00:00Z,25.0720,-80.7350,1.0,29.59,11111222 
ENP,ioos.station.NOAA.NDBC:WRBF1:1,2019-05-07T15:00:00Z,25.0720,-80.7350,1.0,29.83,11111222 
ENP,ioos.station.NOAA.NDBC:WRBF1:1,2019-05-07T16:00:00Z,25.0720,-80.7350,1.0,30.21,11111222 
ENP,ioos.station.NOAA.NDBC:WRBF1:1,2019-05-07T17:00:00Z,25.0720,-80.7350,1.0,30.82,11111222 
ENP,ioos.station.NOAA.NDBC:WRBF1:1,2019-05-07T18:00:00Z,25.0720,-80.7350,1.0,31.25,11111222 
ENP,ioos.station.NOAA.NDBC:WRBF1:1,2019-05-07T19:00:00Z,25.0720,-80.7350,1.0,31.33,11111222 
ENP,ioos.station.NOAA.NDBC:WRBF1:1,2019-05-07T20:00:00Z,25.0720,-80.7350,1.0,31.17,11111222 
ENP,ioos.station.NOAA.NDBC:WRBF1:1,2019-05-07T21:00:00Z,25.0720,-80.7350,1.0,31.03,11111222 
ENP,ioos.station.NOAA.NDBC:WRBF1:1,2019-05-07T22:00:00Z,25.0720,-80.7350,1.0,30.96,11111222 
ENP,ioos.station.NOAA.NDBC:WRBF1:1,2019-05-07T23:00:00Z,25.0720,-80.7350,1.0,31.03,11111222 
ENP,ioos.station.NOAA.NDBC:WRBF1:1,2019-05-08T00:00:00Z,25.0720,-80.7350,1.0,30.96,11111222 
ENP,ioos.station.NOAA.NDBC:WRBF1:1,2019-05-08T01:00:00Z,25.0720,-80.7350,1.0,30.68,11111222 
ENP,ioos.station.NOAA.NDBC:WRBF1:1,2019-05-08T02:00:00Z,25.0720,-80.7350,1.0,30.43,11111222 
ENP,ioos.station.NOAA.NDBC:WRBF1:1,2019-05-08T03:00:00Z,25.0720,-80.7350,1.0,30.2,11111222 
ENP,ioos.station.NOAA.NDBC:WRBF1:1,2019-05-08T04:00:00Z,25.0720,-80.7350,1.0,29.99,11111222 
ENP,ioos.station.NOAA.NDBC:WRBF1:1,2019-05-08T05:00:00Z,25.0720,-80.7350,1.0,29.81,11111222 
ENP,ioos.station.NOAA.NDBC:WRBF1:1,2019-05-08T06:00:00Z,25.0720,-80.7350,1.0,29.58,11111222 
ENP,ioos.station.NOAA.NDBC:WRBF1:1,2019-05-08T07:00:00Z,25.0720,-80.7350,1.0,29.37,11111222 
ENP,ioos.station.NOAA.NDBC:WRBF1:1,2019-05-08T08:00:00Z,25.0720,-80.7350,1.0,29.14,11111222 
ENP,ioos.station.NOAA.NDBC:WRBF1:1,2019-05-08T09:00:00Z,25.0720,-80.7350,1.0,28.68,11111222 
ENP,ioos.station.NOAA.NDBC:WRBF1:1,2019-05-08T10:00:00Z,25.0720,-80.7350,1.0,28.32,11111222 
ENP,ioos.station.NOAA.NDBC:WRBF1:1,2019-05-08T11:00:00Z,25.0720,-80.7350,1.0,27.74,11111222 
ENP,ioos.station.NOAA.NDBC:WRBF1:1,2019-05-08T12:00:00Z,25.0720,-80.7350,1.0,27.39,11111222 
ENP,ioos.station.NOAA.NDBC:WRBF1:1,2019-05-08T13:00:00Z,25.0720,-80.7350,1.0,27.54,11111222 
ENP,ioos.station.NOAA.NDBC:WRBF1:1,2019-05-08T14:00:00Z,25.0720,-80.7350,1.0,27.52,11111222 
ENP,ioos.station.NOAA.NDBC:WRBF1:1,2019-05-08T15:00:00Z,25.0720,-80.7350,1.0,27.91,11111222 
ENP,ioos.station.NOAA.NDBC:WRBF1:1,2019-05-08T16:00:00Z,25.0720,-80.7350,1.0,28.57,11111222 
ENP,ioos.station.NOAA.NDBC:WRBF1:1,2019-05-08T17:00:00Z,25.0720,-80.7350,1.0,29.23,11111222 
ENP,ioos.station.NOAA.NDBC:WRBF1:1,2019-05-08T18:00:00Z,25.0720,-80.7350,1.0,29.96,11111222 
ENP,ioos.station.NOAA.NDBC:WRBF1:1,2019-05-08T19:00:00Z,25.0720,-80.7350,1.0,30.51,11111222 
ENP,ioos.station.NOAA.NDBC:WRBF1:1,2019-05-08T20:00:00Z,25.0720,-80.7350,1.0,30.94,11111222 
ENP,ioos.station.NOAA.NDBC:WRBF1:1,2019-05-08T21:00:00Z,25.0720,-80.7350,1.0,31.27,11111222 
ENP,ioos.station.NOAA.NDBC:WRBF1:1,2019-05-08T22:00:00Z,25.0720,-80.7350,1.0,31.39,11111222 
ENP,ioos.station.NOAA.NDBC:WRBF1:1,2019-05-08T23:00:00Z,25.0720,-80.7350,1.0,31.44,11111222 
ENP,ioos.station.NOAA.NDBC:WRBF1:1,2019-05-09T00:00:00Z,25.0720,-80.7350,1.0,31.61,11111222 
ENP,ioos.station.NOAA.NDBC:WRBF1:1,2019-05-09T01:00:00Z,25.0720,-80.7350,1.0,31.5,11111222 
ENP,ioos.station.NOAA.NDBC:WRBF1:1,2019-05-09T02:00:00Z,25.0720,-80.7350,1.0,31.19,11111222 
ENP,ioos.station.NOAA.NDBC:WRBF1:1,2019-05-09T03:00:00Z,25.0720,-80.7350,1.0,31.0,11111222 
ENP,ioos.station.NOAA.NDBC:WRBF1:1,2019-05-09T04:00:00Z,25.0720,-80.7350,1.0,30.68,11111222 
ENP,ioos.station.NOAA.NDBC:WRBF1:1,2019-05-09T05:00:00Z,25.0720,-80.7350,1.0,30.44,11111222 
ENP,ioos.station.NOAA.NDBC:WRBF1:1,2019-05-09T06:00:00Z,25.0720,-80.7350,1.0,30.34,11111222 
ENP,ioos.station.NOAA.NDBC:WRBF1:1,2019-05-09T07:00:00Z,25.0720,-80.7350,1.0,30.17,11111222 
ENP,ioos.station.NOAA.NDBC:WRBF1:1,2019-05-09T08:00:00Z,25.0720,-80.7350,1.0,29.97,11111222 
ENP,ioos.station.NOAA.NDBC:WRBF1:1,2019-05-09T09:00:00Z,25.0720,-80.7350,1.0,29.69,11111222 
ENP,ioos.station.NOAA.NDBC:WRBF1:1,2019-05-09T10:00:00Z,25.0720,-80.7350,1.0,29.2,11111222 
ENP,ioos.station.NOAA.NDBC:WRBF1:1,2019-05-09T11:00:00Z,25.0720,-80.7350,1.0,29.09,11111222 
ENP,ioos.station.NOAA.NDBC:WRBF1:1,2019-05-09T12:00:00Z,25.0720,-80.7350,1.0,28.97,11111222 
ENP,ioos.station.NOAA.NDBC:WRBF1:1,2019-05-09T13:00:00Z,25.0720,-80.7350,1.0,28.82,11111222 
ENP,ioos.station.NOAA.NDBC:WRBF1:1,2019-05-09T14:00:00Z,25.0720,-80.7350,1.0,28.88,11111222 
ENP,ioos.station.NOAA.NDBC:WRBF1:1,2019-05-09T15:00:00Z,25.0720,-80.7350,1.0,29.14,11111222 
ENP,ioos.station.NOAA.NDBC:WRBF1:1,2019-05-09T16:00:00Z,25.0720,-80.7350,1.0,29.39,11111222 
ENP,ioos.station.NOAA.NDBC:WRBF1:1,2019-05-09T17:00:00Z,25.0720,-80.7350,1.0,29.78,11111222 
ENP,ioos.station.NOAA.NDBC:WRBF1:1,2019-05-09T18:00:00Z,25.0720,-80.7350,1.0,30.25,11111222 
ENP,ioos.station.NOAA.NDBC:WRBF1:1,2019-05-09T19:00:00Z,25.0720,-80.7350,1.0,30.65,11111222 
ENP,ioos.station.NOAA.NDBC:WRBF1:1,2019-05-09T20:00:00Z,25.0720,-80.7350,1.0,31.02,11111222 
ENP,ioos.station.NOAA.NDBC:WRBF1:1,2019-05-09T21:00:00Z,25.0720,-80.7350,1.0,31.25,11111222 
ENP,ioos.station.NOAA.NDBC:WRBF1:1,2019-05-09T22:00:00Z,25.0720,-80.7350,1.0,31.29,11111222 
ENP,ioos.station.NOAA.NDBC:WRBF1:1,2019-05-09T23:00:00Z,25.0720,-80.7350,1.0,31.11,11111222 
ENP,ioos.station.NOAA.NDBC:WRBF1:1,2019-05-10T00:00:00Z,25.0720,-80.7350,1.0,30.93,11111222 
ENP,ioos.station.NOAA.NDBC:WRBF1:1,2019-05-10T01:00:00Z,25.0720,-80.7350,1.0,30.68,11111222 
ENP,ioos.station.NOAA.NDBC:WRBF1:1,2019-05-10T03:00:00Z,25.0720,-80.7350,1.0,30.1,11111222 
ENP,ioos.station.NOAA.NDBC:WRBF1:1,2019-05-10T04:00:00Z,25.0720,-80.7350,1.0,30.01,11111222 
ENP,ioos.station.NOAA.NDBC:WRBF1:1,2019-05-10T05:00:00Z,25.0720,-80.7350,1.0,30.01,11111222 
ENP,ioos.station.NOAA.NDBC:WRBF1:1,2019-05-10T06:00:00Z,25.0720,-80.7350,1.0,30.02,11111222 
ENP,ioos.station.NOAA.NDBC:WRBF1:1,2019-05-10T07:00:00Z,25.0720,-80.7350,1.0,29.84,11111222 
ENP,ioos.station.NOAA.NDBC:WRBF1:1,2019-05-10T08:00:00Z,25.0720,-80.7350,1.0,29.67,11111222 
ENP,ioos.station.NOAA.NDBC:WRBF1:1,2019-05-10T09:00:00Z,25.0720,-80.7350,1.0,29.49,11111222 
ENP,ioos.station.NOAA.NDBC:WRBF1:1,2019-05-10T10:00:00Z,25.0720,-80.7350,1.0,29.26,11111222 
ENP,ioos.station.NOAA.NDBC:WRBF1:1,2019-05-10T11:00:00Z,25.0720,-80.7350,1.0,28.79,11111222 
ENP,ioos.station.NOAA.NDBC:WRBF1:1,2019-05-10T12:00:00Z,25.0720,-80.7350,1.0,28.53,11111222 
ENP,ioos.station.NOAA.NDBC:WRBF1:1,2019-05-10T13:00:00Z,25.0720,-80.7350,1.0,28.35,11111222 
ENP,ioos.station.NOAA.NDBC:WRBF1:1,2019-05-10T14:00:00Z,25.0720,-80.7350,1.0,28.31,11111222 
ENP,ioos.station.NOAA.NDBC:WRBF1:1,2019-05-10T15:00:00Z,25.0720,-80.7350,1.0,28.6,11111222 
ENP,ioos.station.NOAA.NDBC:WRBF1:1,2019-05-10T16:00:00Z,25.0720,-80.7350,1.0,29.07,11111222 
ENP,ioos.station.NOAA.NDBC:WRBF1:1,2019-05-10T17:00:00Z,25.0720,-80.7350,1.0,29.7,11111222 
ENP,ioos.station.NOAA.NDBC:WRBF1:1,2019-05-10T18:00:00Z,25.0720,-80.7350,1.0,30.19,11111222 
ENP,ioos.station.NOAA.NDBC:WRBF1:1,2019-05-10T19:00:00Z,25.0720,-80.7350,1.0,30.49,11111222 
ENP,ioos.station.NOAA.NDBC:WRBF1:1,2019-05-10T20:00:00Z,25.0720,-80.7350,1.0,30.64,11111222 
ENP,ioos.station.NOAA.NDBC:WRBF1:1,2019-05-10T21:00:00Z,25.0720,-80.7350,1.0,30.72,11111222 
ENP,ioos.station.NOAA.NDBC:WRBF1:1,2019-05-10T22:00:00Z,25.0720,-80.7350,1.0,30.65,11111222 
ENP,ioos.station.NOAA.NDBC:WRBF1:1,2019-05-10T23:00:00Z,25.0720,-80.7350,1.0,30.58,11111222 
ENP,ioos.station.NOAA.NDBC:WRBF1:1,2019-05-11T00:00:00Z,25.0720,-80.7350,1.0,30.46,11111222 
ENP,ioos.station.NOAA.NDBC:WRBF1:1,2019-05-11T01:00:00Z,25.0720,-80.7350,1.0,30.1,11111222 
ENP,ioos.station.NOAA.NDBC:WRBF1:1,2019-05-11T02:00:00Z,25.0720,-80.7350,1.0,29.87,11111222 
ENP,ioos.station.NOAA.NDBC:WRBF1:1,2019-05-11T03:00:00Z,25.0720,-80.7350,1.0,29.6,11111222 
ENP,ioos.station.NOAA.NDBC:WRBF1:1,2019-05-11T04:00:00Z,25.0720,-80.7350,1.0,29.43,11111222 
ENP,ioos.station.NOAA.NDBC:WRBF1:1,2019-05-11T05:00:00Z,25.0720,-80.7350,1.0,29.33,11111222 
ENP,ioos.station.NOAA.NDBC:WRBF1:1,2019-05-11T06:00:00Z,25.0720,-80.7350,1.0,29.18,11111222 
ENP,ioos.station.NOAA.NDBC:WRBF1:1,2019-05-11T07:00:00Z,25.0720,-80.7350,1.0,29.03,11111222 
ENP,ioos.station.NOAA.NDBC:WRBF1:1,2019-05-11T08:00:00Z,25.0720,-80.7350,1.0,28.83,11111222 
ENP,ioos.station.NOAA.NDBC:WRBF1:1,2019-05-11T09:00:00Z,25.0720,-80.7350,1.0,28.6,11111222 
ENP,ioos.station.NOAA.NDBC:WRBF1:1,2019-05-11T10:00:00Z,25.0720,-80.7350,1.0,28.49,11111222 
ENP,ioos.station.NOAA.NDBC:WRBF1:1,2019-05-11T11:00:00Z,25.0720,-80.7350,1.0,28.48,11111222 
ENP,ioos.station.NOAA.NDBC:WRBF1:1,2019-05-11T12:00:00Z,25.0720,-80.7350,1.0,28.47,11111222 
ENP,ioos.station.NOAA.NDBC:WRBF1:1,2019-05-11T13:00:00Z,25.0720,-80.7350,1.0,28.5,11111222 
ENP,ioos.station.NOAA.NDBC:WRBF1:1,2019-05-11T14:00:00Z,25.0720,-80.7350,1.0,28.6,11111222 
ENP,ioos.station.NOAA.NDBC:WRBF1:1,2019-05-11T15:00:00Z,25.0720,-80.7350,1.0,28.6,11111222 
ENP,ioos.station.NOAA.NDBC:WRBF1:1,2019-05-11T16:00:00Z,25.0720,-80.7350,1.0,28.8,11111222 
ENP,ioos.station.NOAA.NDBC:WRBF1:1,2019-05-11T17:00:00Z,25.0720,-80.7350,1.0,29.2,11111222 
ENP,ioos.station.NOAA.NDBC:WRBF1:1,2019-05-11T18:00:00Z,25.0720,-80.7350,1.0,29.7,11111222 
ENP,ioos.station.NOAA.NDBC:WRBF1:1,2019-05-11T19:00:00Z,25.0720,-80.7350,1.0,30.2,11111222 
ENP,ioos.station.NOAA.NDBC:WRBF1:1,2019-05-11T20:00:00Z,25.0720,-80.7350,1.0,30.5,11111222 
ENP,ioos.station.NOAA.NDBC:WRBF1:1,2019-05-11T21:00:00Z,25.0720,-80.7350,1.0,30.8,11111222 
ENP,ioos.station.NOAA.NDBC:WRBF1:1,2019-05-11T22:00:00Z,25.0720,-80.7350,1.0,30.9,11111222 
ENP,ioos.station.NOAA.NDBC:WRBF1:1,2019-05-11T23:00:00Z,25.0720,-80.7350,1.0,31.0,11111222 
ENP,ioos.station.NOAA.NDBC:WRBF1:1,2019-05-12T00:00:00Z,25.0720,-80.7350,1.0,30.8,11111222 
ENP,ioos.station.NOAA.NDBC:WRBF1:1,2019-05-12T01:00:00Z,25.0720,-80.7350,1.0,30.5,11111222 
ENP,ioos.station.NOAA.NDBC:WRBF1:1,2019-05-12T02:00:00Z,25.0720,-80.7350,1.0,30.4,11111222 
ENP,ioos.station.NOAA.NDBC:WRBF1:1,2019-05-12T03:00:00Z,25.0720,-80.7350,1.0,30.3,11111222 